Weather History for Douglas, WY

Change the Weather History Date:

Monday, October 29, 2012

  Actual Average Record
Temperature  
Mean Temperature 53 °F 41 °F  
Max Temperature 69 °F 56 °F 76 °F (2008)
Min Temperature 37 °F 26 °F 9 °F (2009)
Degree Days  
Heating Degree Days 12 24  
Month to date heating degree days 610 550  
Since 1 July heating degree days 738 819  
Cooling Degree Days 0 0  
Month to date cooling degree days 0 0  
Year to date cooling degree days 831 486  
Growing Degree Days 2 (Base 50)    
Moisture  
Dew Point 35 °F    
Average Humidity 58    
Maximum Humidity 85    
Minimum Humidity 31    
Precipitation  
Precipitation 0.00 in 0.02 in 0.08 in (2004)
Month to date precipitation 1.00 1.02  
Year to date precipitation 5.19 12.30  
Sea Level Pressure  
Sea Level Pressure 29.98 in    
Wind  
Wind Speed 9 mph (WNW)    
Max Wind Speed 26 mph    
Max Gust Speed 33 mph    
Visibility 10 miles    
Events      
T = Trace of Precipitation, MM = Missing Value Source: NWS Daily Summary

Daily Weather History Graph

Daily Weather History Graph

Search for Another Location

Airport:

Trip Planner

Search our weather history database for the weather conditions in past years. The results will help you decide how hot, cold, wet, or windy it might be!

Date:

Astronomy

Oct. 29, 2012 Rise Set
Actual Time 7:32 AM MDT 5:57 PM MDT
Civil Twilight 7:03 AM MDT 6:26 PM MDT
Nautical Twilight 6:29 AM MDT 6:59 PM MDT
Astronomical Twilight 5:57 AM MDT 7:32 PM MDT
Moon 5:49 PM MDT (10/29) 7:26 AM MDT (10/29)
Length of Visible Light 11h 23m
Length of Day
10h 24m
Full, 100% of the Moon is Illuminated
Oct 29
Full
Oct 29
Full
Nov 6
Last Quarter
Nov 13
New
Nov 20
First Quarter

Hourly Weather History & Observations

Time (MDT) Temp. Windchill Dew Point Humidity Pressure Visibility Wind Dir Wind Speed Gust Speed Precip Events Conditions
12:53 AM 39.9 °F 35.1 °F 34.0 °F 79% 29.99 in 10.0 mi WNW 6.9 mph - N/A   Clear
1:53 AM 42.1 °F - 35.1 °F 76% 29.97 in 10.0 mi Calm Calm - N/A   Partly Cloudy
2:53 AM 42.1 °F 39.2 °F 34.0 °F 73% 29.97 in 10.0 mi North 4.6 mph - N/A   Partly Cloudy
3:53 AM 43.0 °F 37.2 °F 35.1 °F 74% 29.97 in 10.0 mi West 10.4 mph - N/A   Clear
4:53 AM 44.1 °F 40.1 °F 36.0 °F 73% 29.95 in 10.0 mi NNW 6.9 mph - N/A   Overcast
5:53 AM 43.0 °F 38.2 °F 36.0 °F 76% 29.99 in 10.0 mi NNW 8.1 mph - N/A   Partly Cloudy
6:53 AM 42.1 °F 37.7 °F 35.1 °F 76% 30.00 in 10.0 mi NW 6.9 mph - N/A   Clear
7:53 AM 37.0 °F - 34.0 °F 89% 30.04 in 10.0 mi Calm Calm - N/A   Clear
8:53 AM 48.0 °F - 37.9 °F 68% 30.02 in 10.0 mi Calm Calm - N/A   Clear
9:53 AM 52.0 °F - 37.9 °F 59% 30.03 in 10.0 mi Calm Calm - N/A   Clear
10:53 AM 55.0 °F - 37.9 °F 53% 30.01 in 10.0 mi Calm Calm - N/A   Clear
11:53 AM 63.0 °F - 37.9 °F 40% 29.98 in 10.0 mi WNW 15.0 mph 20.7 mph N/A   Clear
12:53 PM 64.9 °F - 36.0 °F 34% 29.95 in 10.0 mi WNW 18.4 mph 27.6 mph N/A   Clear
1:53 PM 66.9 °F - 35.1 °F 31% 29.92 in 10.0 mi West 17.3 mph 25.3 mph N/A   Clear
2:53 PM 66.0 °F - 35.1 °F 32% 29.92 in 10.0 mi West 19.6 mph 28.8 mph N/A   Clear
3:53 PM 66.9 °F - 36.0 °F 32% 29.92 in 10.0 mi West 19.6 mph 26.5 mph N/A   Clear
4:53 PM 64.9 °F - 34.0 °F 32% 29.91 in 10.0 mi West 17.3 mph 29.9 mph N/A   Scattered Clouds
5:53 PM 62.1 °F - 34.0 °F 35% 29.94 in 10.0 mi WNW 10.4 mph - N/A   Overcast
6:53 PM 55.9 °F - 35.1 °F 45% 29.98 in 10.0 mi WNW 11.5 mph - N/A   Clear
7:53 PM 48.9 °F - 35.1 °F 59% 30.03 in 10.0 mi WNW 8.1 mph - N/A   Clear
8:53 PM 50.0 °F - 35.1 °F 57% 30.00 in 10.0 mi WNW 5.8 mph - N/A   Clear
9:53 PM 46.9 °F - 35.1 °F 63% 30.01 in 10.0 mi NNW 9.2 mph - N/A   Clear
10:53 PM 46.0 °F 42.5 °F 34.0 °F 63% 30.02 in 10.0 mi NW 6.9 mph - N/A   Clear
11:53 PM 46.9 °F - 34.0 °F 61% 30.01 in - WNW 6.9 mph - N/A   Clear